Dublin, Ireland

10:08 AM GMT on November 25, 2017 (GMT +0000)
Dublin International

Weather History for EIDW - October, 2012

Change the Weather History Date:

Friday, October 19, 2012

  Actual Average Record
Temperature  
Mean Temperature 46 °F -  
Max Temperature 54 °F 53 °F 61 °F (2014)
Min Temperature 37 °F 42 °F 32 °F (2002)
Degree Days  
Heating Degree Days 20    
Moisture  
Dew Point 47 °F    
Average Humidity 95    
Maximum Humidity 100    
Minimum Humidity 82    
Precipitation  
Precipitation 0.00 in 0.09 in - ()
Sea Level Pressure  
Sea Level Pressure 29.69 in    
Wind  
Wind Speed 3 mph ()    
Max Wind Speed 8 mph    
Max Gust Speed -    
Visibility 5.1 miles    
Events Fog , Rain    
Averages and records for this station are not official NWS values.
T = Trace of Precipitation, MM = Missing Value Source: Averaged Metar Reports

Daily Weather History Graph

Daily Weather History Graph

Search for Another Location

Airport or City:

Trip Planner

Search our weather history database for the weather conditions in past years. The results will help you decide how hot, cold, wet, or windy it might be!

Date:

Astronomy

Oct. 19, 2012 Rise Set
Actual Time 7:59 AM IST 6:18 PM IST
Civil Twilight 7:24 AM IST 6:54 PM IST
Nautical Twilight 6:43 AM IST 7:34 PM IST
Astronomical Twilight 6:03 AM IST 8:15 PM IST
Moon 1:01 PM IST (10/19) 9:10 PM IST (10/19)
Length of Visible Light 11h 30m
Length of Day
10h 19m
Waxing Crescent, 21% of the Moon is Illuminated
Oct 19
Waxing Crescent
Oct 22
First Quarter
Oct 29
Full
Nov 7
Last Quarter
Nov 13
New

Hourly Weather History & Observations

Time (IST) Temp. Windchill Dew Point Humidity Pressure Visibility Wind Dir Wind Speed Gust Speed Precip Events Conditions
12:00 AM 42.8 °F - 42.8 °F 100% 29.56 in 6.2 mi Variable 2.3 mph - N/A Fog Shallow Fog
12:30 AM 44.6 °F 42.2 °F 44.6 °F 100% 29.59 in 6.2 mi WNW 4.6 mph - N/A   Mostly Cloudy
1:00 AM 42 °F - 42 °F 98% 29.61 in 19 mi NW 2.2 mph - -   Partly Cloudy
1:00 AM 42.8 °F - 41.0 °F 93% 29.59 in 6.2 mi NW 2.3 mph - N/A   Scattered Clouds
1:30 AM 42.8 °F - 42.8 °F 100% 29.59 in 6.2 mi West 2.3 mph - N/A   Partly Cloudy
2:00 AM 39.2 °F 37.0 °F 39.2 °F 100% 29.59 in 6.2 mi NNW 3.5 mph - N/A Fog Shallow Fog
2:30 AM 39.2 °F - 39.2 °F 100% 29.59 in 6.2 mi NNE 2.3 mph - N/A Fog Shallow Fog
3:00 AM 39.2 °F - 39.2 °F 100% 29.59 in 6.2 mi West 2.3 mph - N/A Fog Shallow Fog
3:30 AM 41.0 °F 38.0 °F 41.0 °F 100% 29.62 in 6.2 mi West 4.6 mph - N/A Fog Shallow Fog
4:00 AM 42.8 °F 39.3 °F 42.8 °F 100% 29.62 in 6.2 mi West 5.8 mph - N/A Fog Shallow Fog
4:30 AM 44.6 °F 40.7 °F 44.6 °F 100% 29.62 in 6.2 mi WNW 6.9 mph - N/A   Mostly Cloudy
5:00 AM 44.6 °F 40.2 °F 44.6 °F 100% 29.62 in 6.2 mi WNW 8.1 mph - N/A   Mostly Cloudy
5:30 AM 46.4 °F 44.3 °F 44.6 °F 93% 29.65 in 3.1 mi WNW 4.6 mph - N/A   Mostly Cloudy
6:00 AM 46.4 °F 45.2 °F 46.4 °F 100% 29.65 in 0.3 mi West 3.5 mph - N/A Fog Fog
6:30 AM 46.4 °F 44.3 °F 46.4 °F 100% 29.65 in 0.2 mi West 4.6 mph - N/A Fog Fog
7:00 AM 47 °F - 47 °F 100% 29.68 in 0 mi West 4.5 mph - - Fog Partial Fog
7:00 AM 46.4 °F 45.2 °F 46.4 °F 100% 29.65 in 0.3 mi West 3.5 mph - N/A Fog Fog
7:30 AM 48.2 °F - 46.4 °F 93% 29.68 in - West 5.8 mph - N/A Fog Fog
8:00 AM 46.4 °F 43.5 °F 46.4 °F 100% 29.65 in 0.5 mi West 5.8 mph - N/A Fog Fog
8:30 AM 48.2 °F - 46.4 °F 93% 29.68 in 0.6 mi WNW 5.8 mph - N/A Fog Fog
9:00 AM 48.2 °F - 48.2 °F 100% 29.68 in 1.2 mi West 5.8 mph - N/A   Mostly Cloudy
9:30 AM 48.2 °F - 48.2 °F 100% 29.71 in 1.6 mi WSW 4.6 mph - N/A   Mostly Cloudy
10:00 AM 48.2 °F - 48.2 °F 100% 29.71 in 1.2 mi SSW 4.6 mph - N/A   Mostly Cloudy
10:30 AM 48.2 °F - 48.2 °F 100% 29.71 in 0.7 mi WSW 4.6 mph - N/A   Mostly Cloudy
11:00 AM 50.0 °F - 50.0 °F 100% 29.71 in 1.2 mi WNW 3.5 mph - N/A   Mostly Cloudy
11:30 AM 50.0 °F - 50.0 °F 100% 29.71 in 2.2 mi WNW 3.5 mph - N/A   Mostly Cloudy
12:00 PM 50.0 °F - 50.0 °F 100% 29.74 in 3.7 mi Variable 2.3 mph - N/A   Mostly Cloudy
12:30 PM 51.8 °F - 50.0 °F 94% 29.74 in 5.6 mi Variable 2.3 mph - N/A   Mostly Cloudy
1:00 PM 52 °F - 49 °F 85% 29.75 in 6 mi North 2.2 mph - -   Mist
1:00 PM 51.8 °F - 48.2 °F 88% 29.74 in 5.6 mi North 1.2 mph - N/A   Mostly Cloudy
1:30 PM 51.8 °F - 48.2 °F 88% 29.71 in 6.2 mi SW 4.6 mph - N/A   Mostly Cloudy
2:00 PM 53.6 °F - 48.2 °F 82% 29.71 in 6.2 mi Variable 2.3 mph - N/A   Mostly Cloudy
2:30 PM 53.6 °F - 48.2 °F 82% 29.71 in 6.2 mi Variable 1.2 mph - N/A   Mostly Cloudy
3:00 PM 53.6 °F - 48.2 °F 82% 29.71 in 6.2 mi East 4.6 mph - N/A   Mostly Cloudy
3:30 PM 53.6 °F - 48.2 °F 82% 29.71 in 6.2 mi ESE 4.6 mph - N/A   Mostly Cloudy
4:00 PM 51.8 °F - 48.2 °F 88% 29.71 in 6.2 mi ESE 6.9 mph - N/A   Mostly Cloudy
4:30 PM 51.8 °F - 48.2 °F 88% 29.71 in 6.2 mi East 3.5 mph - N/A   Mostly Cloudy
5:00 PM 51.8 °F - 48.2 °F 88% 29.71 in 6.2 mi Variable 3.5 mph - N/A   Mostly Cloudy
5:30 PM 51.8 °F - 48.2 °F 88% 29.71 in 6.2 mi ESE 3.5 mph - N/A Rain Light Rain
6:00 PM 51.8 °F - 48.2 °F 88% 29.74 in 6.2 mi SE 5.8 mph - N/A   Mostly Cloudy
6:30 PM 51.8 °F - 50.0 °F 94% 29.74 in 6.2 mi Variable 3.5 mph - N/A   Mostly Cloudy
7:00 PM 51 °F - 49 °F 89% 29.76 in 7 mi SSE 4.5 mph - -   Mist
7:00 PM 50.0 °F - 48.2 °F 94% 29.74 in 6.2 mi SSE 4.6 mph - N/A   Mostly Cloudy
7:30 PM 50.0 °F - 48.2 °F 94% 29.74 in 6.2 mi Variable 2.3 mph - N/A   Mostly Cloudy
8:00 PM 50.0 °F - 48.2 °F 94% 29.74 in 6.2 mi Variable 1.2 mph - N/A   Mostly Cloudy
8:30 PM 50.0 °F - 48.2 °F 94% 29.77 in 6.2 mi Variable 2.3 mph - N/A   Mostly Cloudy
9:00 PM 50.0 °F - 48.2 °F 94% 29.77 in 6.2 mi North 1.2 mph - N/A   Mostly Cloudy
9:30 PM 48.2 °F - 48.2 °F 100% 29.77 in 6.2 mi WNW 2.3 mph - N/A   Mostly Cloudy
10:00 PM 48.2 °F - 48.2 °F 100% 29.77 in 6.2 mi Calm Calm - N/A   Mostly Cloudy
10:30 PM 50.0 °F - 48.2 °F 94% 29.77 in 6.2 mi West 4.6 mph - N/A   Mostly Cloudy
11:00 PM 48.2 °F - 48.2 °F 100% 29.77 in 6.2 mi West 5.8 mph - N/A   Mostly Cloudy
11:30 PM 48.2 °F - 48.2 °F 100% 29.77 in 6.2 mi West 4.6 mph - N/A   Mostly Cloudy